Regional Weather Roundup
Issued by NWS Cleveland, OH

Home | Current Version | Previous Version | Graphics & Text | Print | Product List | Glossary On
Versions: 1 2 3 4 5 6 7 8 9 10 11 12 13 14 15 16 17 18 19 20 21 22 23 24 25 26 27 28 29 30 31 32 33 34 35 36 37 38 39 40 41 42 43 44 45 46 47 48 49 50
000
ASUS41 KCLE 010200
RWRCLE
OHIO REGIONAL WEATHER ROUNDUP
NATIONAL WEATHER SERVICE WILMINGTON, OH
1000 PM EDT TUE SEP 30 2014

NOTE: "FAIR" INDICATES FEW OR NO CLOUDS BELOW 12,000 FEET WITH NO
SIGNIFICANT WEATHER AND/OR OBSTRUCTIONS TO VISIBILITY.

OHZ001>008-015>018-024>027-034-035-043-044-010300-
   NORTHWEST OHIO

CITY           SKY/WX    TMP DP  RH WIND       PRES   REMARKS
DEFIANCE       CLOUDY    57  48  72 N3        30.02R
FINDLAY        MOCLDY    56  49  77 N6        29.99S
TOLEDO EXPRESS CLOUDY    54  49  83 N7        30.01S
TOLEDO METCALF CLOUDY    54  49  83 NW6       30.02R
LIMA           CLOUDY    56  49  77 N5        30.00S
$$

OHZ009>014-019>023-028>033-038-089-010300-
   NORTHEAST OHIO

CITY           SKY/WX    TMP DP  RH WIND       PRES   REMARKS
CLE-HOPKINS    CLOUDY    58  51  78 N8        30.00S
CLE-LAKEFRONT  CLOUDY    60  52  74 N8        29.98R
CUY CO. ARPT   MOCLDY    59  55  88 NE7       29.99R
LORAIN-ELYRIA  CLOUDY    60  52  74 N5        30.00R
ASHTABULA      PTCLDY    52  51  97 CALM      29.98S FOG
AKRON-CANTON   PTCLDY    54  50  86 N7        29.98R
WOOSTER        NOT AVBL
MANSFIELD      CLOUDY    54  52  93 NW5       29.99R
YOUNGSTOWN     CLOUDY    55  53  93 N5        29.98R
$$

OHZ042-051>053-060>062-070>072-077>081-010300-
  SOUTHWEST OHIO

CITY           SKY/WX    TMP DP  RH WIND       PRES   REMARKS
CINC-COVINGTON CLEAR     62  52  69 NE9       29.96R
CINC-LUNKEN    CLEAR     59  54  83 NE8       29.97R
HAMILTON       CLEAR     56  51  84 NE5       29.99R
DAYTON         NOT AVBL
WRIGHT-PAT AFB CLEAR     51  47  83 N6        29.99R
DAYTON GENERAL CLEAR     51  47  86 NE8       29.98R
WILMINGTON     CLEAR     50  46  86 NE7       29.98R
$$

OHZ036-037-039>041-045>050-054>059-063>069-073>076-082>088-010300-
  CENTRAL AND SOUTHEAST OHIO

CITY           SKY/WX    TMP DP  RH WIND       PRES   REMARKS
COLUMBUS       MOCLDY    53  49  86 N3        29.97R
OSU AIRPORT    CLEAR     52  48  86 NW7       29.98R
BOLTON FIELD   NOT AVBL
RICKENBACK AFB NOT AVBL
NEWARK         CLOUDY    55  52  89 CALM      29.97R
MARION         MOCLDY    54  50  86 N6        29.99R
LANCASTER      CLEAR     50  48  93 CALM      29.98R
ZANESVILLE     CLOUDY    59  53  80 N6        29.96R
NEW PHILLY     PTCLDY    56  54  93 NW3       29.97R
$$



USA.gov is the U.S. government's official web portal to all federal, state and local government web resources and services.